Weather History for LIMU - September, 2013

Change the Weather History Date:

Monday, September 30, 2013

  Actual Average Record
Temperature  
Mean Temperature 66 °F -  
Max Temperature 71 °F 66 °F - (-1)
Min Temperature 61 °F 57 °F - (-1)
Cooling Degree Days 1    
Growing Degree Days 16 (Base 50)    
Moisture  
Dew Point 59 °F    
Average Humidity 77    
Maximum Humidity 88    
Minimum Humidity 64    
Precipitation  
Precipitation 0.00 in 0.13 in - ()
Sea Level Pressure  
Sea Level Pressure 29.63 in    
Wind  
Wind Speed 5 mph ()    
Max Wind Speed 13 mph    
Max Gust Speed -    
Visibility 7.1 miles    
Events      
Averages and records for this station are not official NWS values.
T = Trace of Precipitation, MM = Missing Value Source: Averaged Metar Reports

Daily Weather History Graph

Daily Weather History Graph

Search for Another Location

Airport or City:

Trip Planner

Search our weather history database for the weather conditions in past years. The results will help you decide how hot, cold, wet, or windy it might be!

Date:

Astronomy

Sep. 30, 2013 Rise Set
Actual Time 7:23 AM CEST 7:10 PM CEST
Civil Twilight 6:55 AM CEST 7:38 PM CEST
Nautical Twilight 6:21 AM CEST 8:12 PM CEST
Astronomical Twilight 5:47 AM CEST 8:46 PM CEST
Moon 2:37 AM CEST (9/30) 4:38 PM CEST (9/30)
Length of Visible Light 12h 43m
Length of Day
11h 46m
Waning Crescent, 21% of the Moon is Illuminated
Sep 30
Waning Crescent
Oct 5
New
Oct 12
First Quarter
Oct 19
Full
Oct 27
Last Quarter

Hourly Weather History & Observations

Time (CEST) Temp. Dew Point Humidity Pressure Visibility Wind Dir Wind Speed Gust Speed Precip Events Conditions
12:55 AM 62.6 °F 55.4 °F 77% 29.65 in 6.2 mi West 3.5 mph - N/A   Scattered Clouds
1:55 AM 62.6 °F 55.4 °F 77% 29.65 in 6.2 mi WSW 6.9 mph - N/A   Partly Cloudy
2:00 AM 63 °F 56 °F 70% 29.64 in 12 mi WSW 6.9 mph - -   Scattered Clouds
2:55 AM 62.6 °F 57.2 °F 82% 29.65 in 6.2 mi WSW 5.8 mph - N/A   Scattered Clouds
3:55 AM 62.6 °F 57.2 °F 82% 29.62 in 6.2 mi WNW 3.5 mph - N/A   Partly Cloudy
4:55 AM 62.6 °F 57.2 °F 82% 29.59 in 6.2 mi NW 2.3 mph - N/A   Partly Cloudy
5:55 AM 66.2 °F 59.0 °F 78% 29.59 in 6.2 mi North 3.5 mph - N/A   Partly Cloudy
6:55 AM 62.6 °F 57.2 °F 82% 29.59 in 6.2 mi WNW 1.2 mph - N/A   Partly Cloudy
7:55 AM 62.6 °F 55.4 °F 77% 29.59 in 6.2 mi North 3.5 mph - N/A   Partly Cloudy
8:00 AM 62 °F 55 °F 73% 29.59 in 12 mi North 3.5 mph - -   Scattered Clouds
8:55 AM 62.6 °F 57.2 °F 82% 29.59 in - NE 2.3 mph - N/A   Clear
9:55 AM 66.2 °F 59.0 °F 78% 29.59 in - NE 4.6 mph - N/A   Clear
10:55 AM 68.0 °F 60.8 °F 78% 29.62 in 6.2 mi NNE 9.2 mph - N/A   Partly Cloudy
11:55 AM 69.8 °F 59.0 °F 68% 29.62 in 6.2 mi ENE 6.9 mph - N/A   Partly Cloudy
12:55 PM 69.8 °F 60.8 °F 73% 29.62 in 6.2 mi ENE 6.9 mph - N/A   Partly Cloudy
1:55 PM 69.8 °F 60.8 °F 73% 29.62 in 6.2 mi South 6.9 mph - N/A   Partly Cloudy
2:00 PM 71 °F 62 °F 64% 29.62 in 12 mi South 6.9 mph - -   Scattered Clouds
2:55 PM 71.6 °F 62.6 °F 73% 29.62 in 6.2 mi SSW 9.2 mph - N/A   Partly Cloudy
3:55 PM 69.8 °F 62.6 °F 78% 29.62 in 6.2 mi SSW 11.5 mph - N/A   Partly Cloudy
4:55 PM 69.8 °F 64.4 °F 83% 29.62 in 6.2 mi SW 11.5 mph - N/A   Partly Cloudy
5:55 PM 69.8 °F 62.6 °F 78% 29.59 in 6.2 mi SW 12.7 mph - N/A   Partly Cloudy
6:55 PM 68.0 °F 60.8 °F 78% 29.62 in 6.2 mi WSW 12.7 mph - N/A   Partly Cloudy
7:55 PM 66.2 °F 59.0 °F 78% 29.65 in 6.2 mi WSW 11.5 mph - N/A   Partly Cloudy
8:00 PM 66 °F 58 °F 70% 29.64 in 12 mi WSW 11.5 mph - -   Scattered Clouds
8:55 PM 66.2 °F 59.0 °F 78% 29.65 in 6.2 mi WSW 4.6 mph - N/A   Partly Cloudy
9:55 PM 68.0 °F 57.2 °F 68% 29.68 in 6.2 mi North 5.8 mph - N/A   Partly Cloudy
10:55 PM 66.2 °F 62.6 °F 88% 29.68 in 6.2 mi North 8.1 mph - N/A   Scattered Clouds
11:55 PM 66.2 °F 60.8 °F 83% 29.71 in 6.2 mi NNE 10.4 mph - N/A   Scattered Clouds